USA 567

operational
NORAD ID: 66145 Int'l Des: 2024-134 Owner: SFSSC Country: US
LEOCIRCULAR

Über USA 567

Beschreibung wird geladen...

Live-Position

3D-Globus wird geladen...

Nächste Überflüge

Höhenverlauf

Altitude vs Time

uPlot chart will show altitude changes over time

Zweizeiliger Elementsatz

1 66145C 25240A 25298.74631944 .00609550 00000+0 99855-3 0 2984
2 66145 53.1582 338.7962 0009087 271.3371 343.4984 16.01815590 16
Epoch: 25. Okt. 2025 • Age: 153 hours

Aktueller Status

Höhe 255.1 km
Geschwindigkeit 7.76 km/s
Subsatellitenpunkt 43.27°N, 94.38°W
Startdatum 30. Juli 2024
Alter 1.2 years
Typ military

Technische Details

Klassifizierung Payload
Masse 100.00 kg
Trockenmasse 100.00 kg
Gesamtmasse 100.00 kg
Länge 1.00 m
Durchmesser 1.00 m
Spannweite 1.00 m
Form Box
Hersteller UNKUS
Bus-Typ Unknown
Phasenstatus In Orbit
Besitzer/Staat SFSSC/US

Große Konstellationen

Loading constellations...